Simultaneous Nadir Overpasses (SNOs) Predictions

Prediction of SNOs between GOES-15 and METOP-A Satellite Orbit:

Table of predicted SNOs for the next 14.0 days since TLE Epoch: 3/2/2012
Index Date Time (GOES-15) GOES-15 Lat,Lon METOP-A Lat,Lon Distance(km) Time Diff (sec)
1 03/03/2012 06:20:11 0.03,-135.42 0.74,-132.32 353.48 80
2 03/04/2012 18:36:23 -0.03,-135.42 0.30,-136.88 166.76 80
3 03/05/2012 18:18:25 -0.03,-135.41 -0.84,-131.89 401.71 80
4 03/07/2012 06:34:45 0.03,-135.40 -0.21,-136.48 123.67 80
5 03/08/2012 06:16:46 0.03,-135.39 0.89,-131.48 444.55 80
6 03/09/2012 18:32:58 -0.03,-135.37 0.13,-136.04 76.66 80
7 03/10/2012 18:15:00 -0.03,-135.36 -1.02,-131.06 491.06 80
8 03/12/2012 06:31:19 0.04,-135.33 -0.06,-135.64 35.81 80
9 03/14/2012 18:29:32 -0.05,-135.29 -0.04,-135.20 9.25 80




NCC Satellite Simultaneous Nadir Overpasses (SNOs) Prediction Service
